EW8945 Weather Reports


time (UTC)temp
C
wind
direction
speed
KPH
gust
KPH
rain 1hr
cm
rain 24hr
cm
rain mn
cm
humidity
%
barometer
mb
20260503193203 17 221 8.0 14.5 0.00 0.00 0.00 63 1011.6
20260503192703 17 158 9.7 16.1 0.00 0.00 0.00 64 1011.6
20260503192203 17 169 8.0 17.7 0.00 0.00 0.00 60 1011.6
20260503191704 17 205 4.8 17.7 0.00 0.00 0.00 60 1011.7
20260503191203 17 175 3.2 11.3 0.00 0.00 0.00 62 1011.7
20260503190702 17 78 3.2 8.0 0.00 0.00 0.00 62 1011.7
20260503190204 16 60 3.2 11.3 0.00 0.00 0.00 65 1011.8
20260503185704 17 130 6.4 14.5 0.00 0.00 0.00 63 1011.8
20260503185203 17 252 4.8 14.5 0.00 0.00 0.00 62 1011.8
20260503184710 16 171 8.0 17.7 0.00 0.00 0.00 64 1011.8
20260503184704 17 184 4.8 12.9 0.00 0.00 0.00 62 1011.8
20260503183834 16 181 9.7 19.3 0.00 0.00 0.00 66 1011.9
20260503183710 16 234 6.4 19.3 0.00 0.00 0.00 65 1011.9
20260503183704 16 209 6.4 17.7 0.00 0.00 0.00 66 1011.9
20260503182203 16 238 9.7 17.7 0.00 0.00 0.00 65 1011.9
20260503181704 16 180 8.0 17.7 0.00 0.00 0.00 66 1011.9
20260503181207 15 220 9.7 19.3 0.00 0.00 0.00 68 1012.0
20260503181202 15 185 9.7 19.3 0.00 0.00 0.00 67 1011.9
20260503180208 15 218 4.8 9.7 0.00 0.00 0.00 70 1012.0
20260503180204 15 217 6.4 19.3 0.00 0.00 0.00 68 1012.0
20260503175202 15 259 4.8 12.9 0.00 0.00 0.00 71 1011.9
20260503174703 15 246 6.4 12.9 0.00 0.00 0.00 71 1011.9
20260503174208 15 225 6.4 14.5 0.00 0.00 0.00 71 1012.0
20260503174202 15 232 6.4 14.5 0.00 0.00 0.00 71 1012.0
20260503173203 14 226 6.4 16.1 0.00 0.00 0.00 72 1011.9
20260503172702 14 232 6.4 16.1 0.00 0.00 0.00 72 1011.9
20260503172202 14 240 8.0 14.5 0.00 0.00 0.00 72 1012.0
20260503171702 14 223 9.7 17.7 0.00 0.00 0.00 72 1011.9
20260503171201 14 235 8.0 19.3 0.00 0.00 0.00 74 1012.0
20260503170700 15 227 4.8 19.3 0.00 0.00 0.00 75 1011.9
20260503170201 15 298 1.6 6.4 0.00 0.00 0.00 77 1011.9
20260503160156 14 169 3.2 9.7 0.00 0.00 0.00 75 1011.8
20260503150649 13 150 3.2 8.0 0.00 0.00 0.00 74 1011.4
20260503150153 13 172 3.2 8.0 0.00 0.00 0.00 73 1011.3
20260503150148 13 173 4.8 8.0 0.00 0.00 0.00 74 1011.4
20260503140146 13 237 4.8 6.4 0.00 0.00 0.00 75 1010.7
20260503131145 12 266 4.8 12.9 0.00 0.00 0.00 78 1010.2
20260503130648 12 242 4.8 12.9 0.00 0.00 0.00 78 1010.1
20260503130643 12 238 4.8 12.9 0.00 0.00 0.00 78 1010.0
20260503130258 12 244 3.2 11.3 0.00 0.00 0.00 78 1010.0
20260503120142 12 267 4.8 11.3 0.00 0.00 0.00 79 1009.8
20260503110643 12 240 4.8 11.3 0.00 0.00 0.00 79 1010.1
20260503110143 12 278 4.8 11.3 0.00 0.00 0.00 80 1010.1
20260503100135 12 287 4.8 11.3 0.00 0.00 0.00 79 1010.0
20260503090134 12 232 4.8 9.7 0.00 0.00 0.00 79 1010.2
20260503081134 12 331 4.8 12.9 0.00 0.00 0.00 79 1010.7
20260503080634 13 290 4.8 9.7 0.00 0.00 0.00 79 1010.7
20260503080133 13 304 4.8 9.7 0.00 0.00 0.00 79 1010.7
20260503072131 13 308 3.2 9.7 0.00 0.00 0.00 78 1010.9
20260503071632 13 302 3.2 9.7 0.00 0.00 0.00 78 1010.9
20260503071132 13 301 3.2 9.7 0.00 0.00 0.00 78 1010.9
20260503070631 13 292 4.8 9.7 0.00 0.00 0.00 78 1010.9
20260503070132 13 322 4.8 9.7 0.00 0.00 0.00 79 1010.8
20260503060134 13 304 4.8 14.5 0.00 0.00 0.00 77 1011.0
20260503060128 13 304 6.4 16.1 0.00 0.00 0.00 77 1011.0
20260503055128 13 9 3.2 14.5 0.00 0.00 0.00 77 1011.1
20260503054628 13 321 3.2 8.0 0.00 0.00 0.00 77 1011.1
20260503054127 13 326 4.8 14.5 0.00 0.00 0.00 77 1011.2
20260503053627 13 287 4.8 14.5 0.00 0.00 0.00 77 1011.2
20260503053127 13 325 4.8 12.9 0.00 0.00 0.00 77 1011.2
20260503052627 13 297 4.8 11.3 0.00 0.00 0.00 77 1011.2
20260503052127 13 320 4.8 12.9 0.00 0.00 0.00 77 1011.2
20260503051626 13 309 6.4 12.9 0.00 0.00 0.00 77 1011.2
20260503051126 13 312 6.4 12.9 0.00 0.00 0.00 77 1011.2
20260503050627 13 303 6.4 17.7 0.00 0.00 0.00 76 1011.2
20260503050127 13 314 8.0 17.7 0.00 0.00 0.00 77 1011.1
20260503045625 13 0 8.0 17.7 0.00 0.00 0.00 76 1011.1
20260503045125 13 302 8.0 17.7 0.00 0.00 0.00 76 1011.0
20260503044622 13 355 8.0 16.1 0.00 0.00 0.00 76 1011.0
20260503044124 13 330 8.0 16.1 0.00 0.00 0.00 76 1011.0
20260503043623 13 30 8.0 20.9 0.00 0.00 0.00 76 1010.9
20260503043122 13 333 8.0 20.9 0.00 0.00 0.00 76 1010.9
20260503042623 13 329 6.4 16.1 0.00 0.00 0.00 76 1010.8
20260503042122 13 296 8.0 19.3 0.00 0.00 0.00 76 1010.9
20260503041622 13 355 8.0 19.3 0.00 0.00 0.00 76 1010.8
20260503041123 13 323 6.4 19.3 0.00 0.00 0.00 76 1010.7
20260503040628 13 12 8.0 17.7 0.00 0.00 0.00 76 1010.6
20260503040622 13 322 6.4 16.1 0.00 0.00 0.00 76 1010.7
20260503035623 13 25 6.4 17.7 0.00 0.00 0.00 76 1010.6
20260503035121 13 355 6.4 16.1 0.00 0.00 0.00 76 1010.6
20260503034624 13 5 6.4 14.5 0.00 0.00 0.00 76 1010.4
20260503034121 13 355 6.4 19.3 0.00 0.00 0.00 75 1010.4
20260503033625 13 42 8.0 17.7 0.00 0.00 0.00 74 1010.3
20260503033620 13 14 6.4 19.3 0.00 0.00 0.00 75 1010.4
20260503033121 13 355 8.0 17.7 0.00 0.00 0.00 75 1010.4
20260503032119 13 0 8.0 17.7 0.00 0.00 0.00 74 1010.3
20260503031617 13 355 6.4 16.1 0.00 0.00 0.00 74 1010.2
20260503031121 14 20 6.4 14.5 0.00 0.00 0.00 73 1010.1
20260503031116 14 330 6.4 14.5 0.00 0.00 0.00 73 1010.2
20260503030734 14 5 9.7 19.3 0.00 0.00 0.00 73 1009.9
20260503030221 14 325 8.0 17.7 0.00 0.00 0.00 73 1010.0
20260503025114 14 19 9.7 19.3 0.00 0.00 0.00 73 1009.8
20260503024615 14 355 9.7 19.3 0.00 0.00 0.00 73 1009.8
20260503024112 14 38 8.0 19.3 0.00 0.00 0.00 73 1009.8
20260503023617 15 9 9.7 19.3 0.00 0.00 0.00 72 1009.7
20260503023611 14 35 9.7 19.3 0.00 0.00 0.00 73 1009.7
20260503022613 15 345 8.0 17.7 0.00 0.00 0.00 72 1009.7
20260503022112 15 24 9.7 19.3 0.00 0.00 0.00 72 1009.6
20260503021612 15 355 9.7 19.3 0.00 0.00 0.00 73 1009.6
20260503021117 15 18 12.9 22.5 0.00 0.00 0.00 73 1009.6
20260503021112 15 44 11.3 20.9 0.00 0.00 0.00 73 1009.6
20260503020730 15 17 11.3 22.5 0.00 0.00 0.00 72 1009.6
20260503015612 15 19 9.7 22.5 0.00 0.00 0.00 72 1009.5
20260503015112 15 46 9.7 22.5 0.00 0.00 0.00 73 1009.6
20260503014613 16 9 9.7 19.3 0.00 0.00 0.00 72 1009.6
20260503014116 16 335 9.7 19.3 0.00 0.00 0.00 73 1009.6
20260503014111 16 5 9.7 19.3 0.00 0.00 0.00 72 1009.6
20260503013112 16 349 11.3 20.9 0.00 0.00 0.00 72 1009.6
20260503012617 16 19 11.3 24.1 0.00 0.00 0.00 71 1009.6
20260503012613 16 18 11.3 24.1 0.00 0.00 0.00 72 1009.7
20260503011611 16 28 11.3 22.5 0.00 0.00 0.00 71 1009.6
20260503011111 16 46 11.3 22.5 0.00 0.00 0.00 71 1009.6
20260503010613 16 348 11.3 22.5 0.00 0.00 0.00 71 1009.7
20260503010112 16 14 12.9 24.1 0.00 0.00 0.00 71 1009.7
20260503005613 16 36 11.3 24.1 0.00 0.00 0.00 70 1009.6
20260503005116 17 0 9.7 22.5 0.00 0.00 0.00 70 1009.6
20260503005111 17 36 8.0 19.3 0.00 0.00 0.00 69 1009.6
20260503004111 17 349 11.3 22.5 0.00 0.00 0.00 70 1009.6
20260503003611 17 44 11.3 20.9 0.00 0.00 0.00 70 1009.6
20260503003112 17 344 11.3 22.5 0.00 0.00 0.00 70 1009.6
20260503002611 17 22 9.7 25.7 0.00 0.00 0.00 68 1009.7
20260503002112 17 5 9.7 25.7 0.00 0.00 0.00 69 1009.6
20260503001612 17 326 11.3 20.9 0.00 0.00 0.00 70 1009.7
20260503001111 17 350 12.9 25.7 0.00 0.00 0.00 70 1009.7
20260503000613 17 27 11.3 25.7 0.00 0.00 0.00 68 1009.8
20260503000114 18 29 11.3 24.1 0.00 0.00 0.00 67 1009.7
20260502235612 18 12 11.3 19.3 0.00 0.00 0.00 66 1009.7
20260502235128 18 330 9.7 22.5 0.00 0.00 0.00 66 1009.8
20260502235114 18 327 9.7 22.5 0.00 0.00 0.00 66 1009.8
20260502234616 18 22 11.3 22.5 0.00 0.00 0.00 67 1009.8
20260502234226 18 343 11.3 24.1 0.00 0.00 0.00 67 1010.0
20260502233608 18 10 9.7 19.3 0.00 0.00 0.00 66 1009.8
20260502233107 18 335 11.3 24.1 0.00 0.00 0.00 67 1010.0
20260502232115 18 336 12.9 25.7 0.00 0.00 0.00 67 1010.1
20260502232107 18 9 11.3 22.5 0.00 0.00 0.00 68 1010.0
20260502231607 18 320 12.9 25.7 0.00 0.00 0.00 68 1010.1
20260502231225 18 26 11.3 24.1 0.00 0.00 0.00 66 1010.2
20260502230108 18 30 9.7 22.5 0.00 0.00 0.00 66 1010.3
20260502225607 18 12 11.3 22.5 0.00 0.00 0.00 67 1010.4
20260502225108 18 21 11.3 20.9 0.00 0.00 0.00 66 1010.4
20260502224606 18 26 11.3 22.5 0.00 0.00 0.00 65 1010.5
20260502224113 18 22 11.3 22.5 0.00 0.00 0.00 66 1010.6
20260502224107 19 350 11.3 22.5 0.00 0.00 0.00 66 1010.6
20260502223105 18 26 11.3 22.5 0.00 0.00 0.00 67 1010.6
20260502222605 18 9 11.3 22.5 0.00 0.00 0.00 67 1010.8
20260502222110 19 60 9.7 19.3 0.00 0.00 0.00 66 1011.1
20260502222106 19 355 9.7 22.5 0.00 0.00 0.00 66 1010.9
20260502221105 18 319 12.9 25.7 0.00 0.00 0.00 67 1011.1
20260502220611 20 0 8.0 17.7 0.00 0.00 0.00 66 1011.1
20260502220605 19 34 11.3 25.7 0.00 0.00 0.00 65 1011.1
20260502215605 20 5 9.7 19.3 0.00 0.00 0.00 66 1011.2
20260502215106 19 14 11.3 20.9 0.00 0.00 0.00 66 1011.2
20260502214605 18 340 11.3 20.9 0.00 0.00 0.00 67 1011.2
20260502214104 19 314 9.7 24.1 0.00 0.00 0.00 66 1011.3
20260502213603 20 333 9.7 24.1 0.00 0.00 0.00 67 1011.4
20260502213101 18 350 9.7 20.9 0.00 0.00 0.00 68 1011.3
20260502212601 18 25 9.7 20.9 0.00 0.00 0.00 68 1011.4
20260502212107 19 24 9.7 22.5 0.00 0.00 0.00 66 1011.4
20260502212102 19 339 9.7 22.5 0.00 0.00 0.00 67 1011.3
20260502211107 19 37 9.7 20.9 0.00 0.00 0.00 67 1011.5
20260502211101 20 355 9.7 17.7 0.00 0.00 0.00 65 1011.5
20260502210719 19 0 9.7 19.3 0.00 0.00 0.00 68 1011.6
20260502205718 18 33 9.7 19.3 0.00 0.00 0.00 68 1011.7
20260502204559 18 51 9.7 19.3 0.00 0.00 0.00 68 1011.8
20260502204104 18 336 8.0 19.3 0.00 0.00 0.00 67 1011.9
20260502204100 18 16 8.0 19.3 0.00 0.00 0.00 68 1011.8
20260502203059 19 17 6.4 17.7 0.00 0.00 0.00 66 1011.9
20260502202600 18 12 6.4 14.5 0.00 0.00 0.00 69 1011.9
20260502202059 18 355 6.4 16.1 0.00 0.00 0.00 68 1011.9
20260502201559 18 14 8.0 16.1 0.00 0.00 0.00 68 1012.1
20260502201059 18 30 6.4 17.7 0.00 0.00 0.00 69 1012.1
20260502200600 18 65 6.4 17.7 0.00 0.00 0.00 69 1012.2
20260502200057 18 54 8.0 17.7 0.00 0.00 0.00 68 1012.3
20260502195058 18 73 4.8 14.5 0.00 0.00 0.00 68 1012.3
20260502194557 18 71 4.8 14.5 0.00 0.00 0.00 71 1012.4
20260502194104 18 71 6.4 11.3 0.00 0.00 0.00 70 1012.4
20260502194059 17 355 6.4 11.3 0.00 0.00 0.00 71 1012.4
20260502193715 18 76 4.8 14.5 0.00 0.00 0.00 71 1012.4